Location: Newark
(33.6333°S, 78.8500°W)
Time: 22:01:52
(UTC+00:00)

Tiros 1 - Pass Details

Date: 18 October 2019
Orbit: 630 x 664 km, 48.4° (Epoch: 17 November)

Event Time Altitude Azimuth Distance (km) Brightness Sun altitude
Rises 17:49:35 0° 332° (NNW) 2,935 10.9 63.6°
Reaches altitude 10° 17:52:03 10° 341° (NNW) 2,026 10.3 63.3°
Maximum altitude 17:56:17 35° 46° (NE) 1,040 8.8 62.9°
Drops below altitude 10° 18:00:31 10° 111° (ESE) 2,030 9.6 62.4°
Sets 18:03:00 0° 120° (ESE) 2,941 10.3 62.1°
